[[{"header":{"parameterUnit":"m.s-1","parameterCategory":1,"la1":30.2991,"la2":30.254,"lo1":-89.0895,"lo2":-89.0444,"dy":0.0017,"dx":0.0017,"nx":28,"ny":28,"refTime":"2025-01-23T09:00:00:Z","depth":0,"parameterNumber":2,"parameterNumberName":"U-component_of_WINDS"},"data":[0,0,0,0,0,0,0,0,0,0,0,0,0,0,0,0,0,0,0,0,0,0,0,0,0,0,0,0,0,0,0,0,0,0,0,0,0,0,0,0,0,0,0,0,0,0,0,0,0,0,0,0,0,0,0,0,0,0,0.0091,0.009,0,0.0019,0.0018,0.0017,-0.001,-0.0009,-0.0009,-0.0009,-0.0083,-0.0085,-0.0087,0,0,0,0,0,0,0,0,0,0,0,0,0,0.0208,0.0206,0.0091,0.009,0.0089,0.0019,0.0018,0.0017,-0.001,-0.0009,-0.0009,-0.0009,-0.0082,-0.0085,-0.0087,0,0,0,0,0,0,0,0,0,0,0,0,0,0.0149,0.0205,0.0091,0.0068,0.0065,0.0019,0.0018,0.0016,-0.001,-0.0009,-0.0009,-0.0009,-0.0081,-0.0085,-0.0088,-0.0116,0,0,-0.0098,-0.0099,0,0,0,0,0,0,0,0,0.0152,0.0144,0.0072,0.0069,0.0066,0.0014,0.0032,-0.0028,-0.001,0.0019,-0.0009,-0.0008,-0.0051,-0.0057,-0.0071,-0.0119,-0.0122,-0.0098,-0.01,-0.0102,-0.0103,0,0,0,0,0,0,0,0.0156,0.0147,0.0062,0.0071,0.0067,0.0061,0.0053,0.002,-0.0017,0.0016,0.0014,0.0006,-0.0053,-0.0068,-0.0073,-0.0123,-0.0098,-0.0101,-0.0103,-0.0104,-0.0196,-0.0196,0,0,0,0,0,0,0.0164,0.0151,0.0065,0.006,0.0111,0.0059,0.005,0.003,-0.0017,-0.0024,0.0006,0.0005,-0.0062,-0.0069,-0.0076,-0.0111,-0.0102,-0.0105,-0.0107,-0.0195,-0.0196,-0.0196,0,0,0,0,0,0,0.0167,0.0157,0.0068,0.0105,0.0093,0.0056,0.0035,0.0029,0.0013,-0.0025,-0.0032,-0.0003,-0.0062,-0.0071,-0.0105,-0.0114,-0.0106,-0.0109,-0.0195,-0.0195,-0.0196,-0.0181,0,0,0,0,0,0,0.017,0.0158,0.0146,0.0105,0.0091,0.0039,0.0034,0.0027,0.0008,0.0006,-0.0035,-0.0042,-0.0063,-0.01,-0.0108,-0.0118,-0.0112,-0.0194,-0.0195,-0.0196,-0.0181,-0.0181,-0.0181,0,0,0,0,0,0.0174,0.0153,0.0146,0.0136,0.0076,0.0039,0.0031,0.0007,0.0007,-0.0005,-0.0029,-0.004,-0.0111,-0.0103,-0.0113,-0.0124,-0.0194,-0.0195,-0.0196,-0.0181,-0.0181,-0.0181,0,0,0,0,0,0,0.0194,0.0147,0.0138,0.0103,0.0075,0.0034,0.0019,0.0007,-0.0022,-0.0022,-0.005,-0.0059,-0.0091,-0.0111,-0.0101,-0.0152,-0.0153,-0.0156,-0.0138,-0.0139,-0.0139,-0.0134,-0.0114,0,0,0,0,0,0.0194,0.0167,0.0128,0.0101,0.0087,0.0056,0.0038,0.0022,-0.0008,-0.002,-0.0047,-0.0075,-0.0104,-0.0122,-0.0151,-0.0183,-0.0192,-0.0195,-0.0195,-0.0195,-0.0198,-0.0215,-0.0217,-0.02,-0.02,-0.02,0,0,0.0194,0.0165,0.015,0.0104,0.008,0.0054,0.0046,0.0017,-0.0003,-0.0024,-0.0058,-0.0078,-0.0112,-0.0145,-0.0161,-0.0162,-0.0204,-0.0197,-0.0196,-0.0199,-0.0216,-0.0218,-0.0219,-0.02,-0.02,-0.02,0,0,0.018,0.0156,0.0131,0.0108,0.0072,0.0052,0.0046,0.0007,-0.0007,-0.0041,-0.0057,-0.0081,-0.013,-0.0153,-0.0171,-0.0191,-0.0202,-0.0199,-0.02,-0.0217,-0.0218,-0.0219,-0.0226,-0.0228,-0.0201,-0.0201,-0.0201,0,0.0185,0.0143,0.0119,0.0092,0.0073,0.0053,0.0028,0.0007,-0.0036,-0.0049,-0.005,-0.011,-0.0134,-0.0172,-0.0177,-0.0191,-0.0198,-0.0195,-0.0216,-0.0218,-0.0219,-0.0226,-0.0228,-0.0201,-0.0201,-0.0201,-0.0201,0,0.0151,0.0123,0.0107,0.0067,0.0046,0.002,-0.0008,-0.0026,-0.0039,-0.0059,-0.0092,-0.0122,-0.0156,-0.0166,-0.018,-0.0205,-0.0205,-0.0211,-0.0212,-0.022,-0.0226,-0.0229,-0.02,-0.02,-0.02,-0.02,0,0,0.0145,0.0094,0.0088,0.007,0.0031,0.0009,-0.0017,-0.005,-0.0065,-0.0093,-0.0115,-0.0155,-0.0159,-0.018,-0.0196,-0.021,-0.0223,-0.0214,-0.0215,-0.0214,-0.0252,-0.0248,-0.0251,-0.023,-0.0231,-0.0231,-0.025,0,0.0126,0.0078,0.0057,0.0019,-0.0007,-0.0025,-0.0047,-0.0073,-0.0092,-0.0116,-0.0136,-0.0164,-0.0168,-0.0181,-0.0196,-0.0218,-0.0231,-0.0217,-0.0251,-0.0252,-0.0243,-0.0255,-0.0251,-0.0267,-0.0252,-0.0253,-0.0253,0,0.0097,0.007,0.0029,-0.0005,-0.0017,-0.0037,-0.0068,-0.0091,-0.012,-0.0133,-0.0154,-0.0169,-0.0196,-0.0195,-0.0232,-0.0222,-0.0237,-0.0249,-0.0251,-0.0255,-0.0253,-0.026,-0.0273,-0.0275,-0.0258,-0.0257,-0.0257,0,0.0097,0.005,0.002,0.0006,-0.0036,-0.0049,-0.0067,-0.0096,-0.0113,-0.014,-0.0152,-0.0182,-0.0198,-0.022,-0.0242,-0.0239,-0.0277,-0.0277,-0.0287,-0.0287,-0.0296,-0.0295,-0.0311,-0.0304,-0.0304,-0.0304,-0.0304,0,0.0078,0.0054,0.002,0.0002,-0.0025,-0.0049,-0.0074,-0.0093,-0.0118,-0.014,-0.0157,-0.0177,-0.0205,-0.0228,-0.0245,-0.0273,-0.028,-0.0291,-0.0295,-0.029,-0.0288,-0.03,-0.03,-0.0305,-0.0305,-0.0304,-0.0304,0,0.0073,0.0049,0.0016,-0.002,-0.0029,-0.0048,-0.0078,-0.0096,-0.0114,-0.0142,-0.015,-0.0179,-0.0207,-0.0231,-0.0268,-0.0279,-0.0307,-0.0313,-0.0298,-0.03,-0.0309,-0.0307,-0.0334,-0.0338,-0.0328,-0.0328,-0.0328,0,0.0062,0.0043,0.0006,-0.001,-0.0027,-0.0052,-0.007,-0.0093,-0.0111,-0.0145,-0.0159,-0.0188,-0.0212,-0.0256,-0.028,-0.0308,-0.0314,-0.0321,-0.0318,-0.0312,-0.0314,-0.0313,-0.0314,-0.0322,-0.0322,-0.0322,-0.0322,0,0.0045,0.0034,0.0009,-0.002,-0.0041,-0.0065,-0.0089,-0.0101,-0.0128,-0.0147,-0.0176,-0.0195,-0.0232,-0.026,-0.029,-0.0308,-0.0319,-0.0322,-0.0326,-0.0321,-0.0311,-0.0316,-0.0298,-0.0322,-0.0322,-0.0322,-0.0322,-0.0322,0.0036,0.0019,-0.0009,-0.0037,-0.0057,-0.0079,-0.0097,-0.0117,-0.0142,-0.0174,-0.0185,-0.0214,-0.0241,-0.0283,-0.03,-0.0322,-0.0324,-0.033,-0.0331,-0.0332,-0.0331,-0.0307,-0.0328,-0.0328,-0.0328,-0.0328,-0.0328,0,0.0018,-0.0001,-0.0025,-0.0058,-0.0079,-0.0087,-0.0114,-0.0131,-0.0156,-0.018,-0.0204,-0.0235,-0.0262,-0.0288,-0.0316,-0.0329,-0.0335,-0.0335,-0.0335,-0.0339,-0.0328,-0.0322,-0.033,-0.033,-0.033,-0.033,-0.033,-0.033,0.0006,-0.0023,-0.0036,-0.0074,-0.0093,-0.0121,-0.0136,-0.0155,-0.0175,-0.0209,-0.0232,-0.0248,-0.0272,-0.0302,-0.0326,-0.0333,-0.0343,-0.0342,-0.035,-0.034,-0.034,-0.0339,-0.0334,-0.0344,-0.0344,-0.0359,-0.0359,-0.0359]},{"header":{"parameterUnit":"m.s-1","parameterCategory":1,"la1":30.2991,"la2":30.254,"lo1":-89.0895,"lo2":-89.0444,"dy":0.0017,"dx":0.0017,"nx":28,"ny":28,"refTime":"2025-01-23T09:00:00:Z","depth":0,"parameterNumber":3,"parameterNumberName":"V-component_of_WINDS"},"data":[0,0,0,0,0,0,0,0,0,0,0,0,0,0,0,0,0,0,0,0,0,0,0,0,0,0,0,0,0,0,0,0,0,0,0,0,0,0,0,0,0,0,0,0,0,0,0,0,0,0,0,0,0,0,0,0,0,0,-4.143,-4.1432,0,-4.1584,-4.1586,-4.1588,-4.155,-4.1547,-4.1544,-4.1541,-4.1695,-4.1701,-4.1708,0,0,0,0,0,0,0,0,0,0,0,0,0,-4.1098,-4.1105,-4.143,-4.1432,-4.1434,-4.1584,-4.1586,-4.1588,-4.155,-4.1547,-4.1543,-4.154,-4.1692,-4.17,-4.1709,0,0,0,0,0,0,0,0,0,0,0,0,0,-4.1246,-4.1107,-4.143,-4.1433,-4.1435,-4.1584,-4.1586,-4.1589,-4.1551,-4.1547,-4.1542,-4.1538,-4.169,-4.17,-4.171,-4.1863,0,0,-4.1741,-4.1746,0,0,0,0,0,0,0,0,-4.1238,-4.1259,-4.1431,-4.1433,-4.1436,-4.1543,-4.1525,-4.1681,-4.1552,-4.1507,-4.1541,-4.1536,-4.1648,-4.1661,-4.17,-4.187,-4.1877,-4.1742,-4.1748,-4.1753,-4.1756,0,0,0,0,0,0,0,-4.1228,-4.1252,-4.1491,-4.1433,-4.1436,-4.1426,-4.1442,-4.1555,-4.16,-4.1511,-4.1508,-4.1527,-4.1648,-4.169,-4.1703,-4.1879,-4.1742,-4.1751,-4.1757,-4.1761,-4.2181,-4.2186,0,0,0,0,0,0,-4.1216,-4.1243,-4.1486,-4.1496,-4.1324,-4.1435,-4.1453,-4.1513,-4.1599,-4.1608,-4.1531,-4.1525,-4.1674,-4.1691,-4.1708,-4.1893,-4.1753,-4.1762,-4.1768,-4.2176,-4.2183,-4.2188,0,0,0,0,0,0,-4.1209,-4.1238,-4.148,-4.1369,-4.1399,-4.1446,-4.1513,-4.1519,-4.1561,-4.1615,-4.1622,-4.1566,-4.1672,-4.1694,-4.1825,-4.1897,-4.1767,-4.1776,-4.2171,-4.2178,-4.2185,-4.2263,0,0,0,0,0,0,-4.12,-4.1236,-4.1296,-4.1371,-4.1405,-4.1596,-4.1518,-4.1525,-4.1579,-4.1573,-4.1649,-4.1657,-4.167,-4.181,-4.1835,-4.1909,-4.1784,-4.2164,-4.2174,-4.2183,-4.2254,-4.2272,-4.2287,0,0,0,0,0,-4.1188,-4.1311,-4.1299,-4.1329,-4.1481,-4.16,-4.1619,-4.1632,-4.1585,-4.1645,-4.1679,-4.1655,-4.1885,-4.1823,-4.1852,-4.193,-4.216,-4.2171,-4.2182,-4.2246,-4.2268,-4.2287,0,0,0,0,0,0,-4.1242,-4.1321,-4.1309,-4.1459,-4.1523,-4.1593,-4.1669,-4.1655,-4.1733,-4.1724,-4.1735,-4.1753,-4.1887,-4.1921,-4.1851,-4.2082,-4.2015,-4.2033,-4.2055,-4.2076,-4.2092,-4.2081,-4.1793,0,0,0,0,0,-4.1271,-4.1363,-4.1426,-4.1553,-4.1586,-4.1622,-4.1674,-4.1679,-4.1745,-4.1771,-4.1816,-4.188,-4.1966,-4.2023,-4.2106,-4.2259,-4.2274,-4.2326,-4.2343,-4.2357,-4.2371,-4.2454,-4.2478,-4.2225,-4.2225,-4.2224,0,0,-4.1333,-4.1387,-4.1444,-4.1565,-4.1615,-4.1708,-4.1645,-4.1746,-4.1814,-4.1786,-4.1913,-4.1948,-4.202,-4.2162,-4.2227,-4.2195,-4.2445,-4.2371,-4.2381,-4.2389,-4.2468,-4.2492,-4.2513,-4.2232,-4.2231,-4.223,0,0,-4.1492,-4.1543,-4.1654,-4.1706,-4.1783,-4.1807,-4.1833,-4.1906,-4.1928,-4.2056,-4.2036,-4.2117,-4.2267,-4.2319,-4.2364,-4.2544,-4.2524,-4.257,-4.2657,-4.2738,-4.2758,-4.2775,-4.2838,-4.2861,-4.2585,-4.2585,-4.2585,0,-4.1558,-4.1699,-4.1712,-4.1816,-4.1869,-4.1849,-4.1961,-4.201,-4.2109,-4.2146,-4.2109,-4.2296,-4.2343,-4.2497,-4.2541,-4.2579,-4.2609,-4.2561,-4.2754,-4.2772,-4.2788,-4.2849,-4.2873,-4.259,-4.2589,-4.2589,-4.2588,0,-4.1776,-4.1874,-4.1954,-4.2053,-4.2115,-4.2222,-4.225,-4.2311,-4.231,-4.2337,-4.2466,-4.2522,-4.2616,-4.2653,-4.2652,-4.2807,-4.2784,-4.2751,-4.2684,-4.2818,-4.2874,-4.2897,-4.2597,-4.2595,-4.2594,-4.2593,0,0,-4.1974,-4.2079,-4.2108,-4.2152,-4.2236,-4.2311,-4.2416,-4.2509,-4.2561,-4.263,-4.2717,-4.2844,-4.2814,-4.2866,-4.2871,-4.2942,-4.3079,-4.29,-4.2901,-4.293,-4.3252,-4.3276,-4.3303,-4.3067,-4.3071,-4.3075,-4.3245,0,-4.214,-4.2328,-4.2342,-4.251,-4.26,-4.2582,-4.2674,-4.2734,-4.2762,-4.2841,-4.2871,-4.296,-4.2914,-4.2945,-4.3014,-4.3048,-4.3144,-4.3036,-4.3147,-4.3151,-4.3129,-4.3333,-4.3359,-4.3517,-4.3268,-4.3272,-4.3274,0,-4.236,-4.2437,-4.2615,-4.2685,-4.2723,-4.2806,-4.2892,-4.2968,-4.3035,-4.305,-4.3109,-4.3105,-4.3211,-4.3141,-4.3287,-4.3213,-4.3259,-4.3283,-4.3289,-4.33,-4.322,-4.3348,-4.3568,-4.3592,-4.3309,-4.3307,-4.3304,0,-4.2485,-4.2633,-4.2759,-4.2797,-4.2883,-4.2941,-4.2979,-4.3043,-4.3097,-4.3172,-4.3207,-4.3293,-4.334,-4.3405,-4.3423,-4.3371,-4.3569,-4.35,-4.3583,-4.3583,-4.3625,-4.3622,-4.3855,-4.3656,-4.3655,-4.3655,-4.3655,0,-4.2669,-4.2778,-4.2816,-4.2893,-4.3014,-4.303,-4.3148,-4.3183,-4.3239,-4.3321,-4.3311,-4.3388,-4.3407,-4.3488,-4.3502,-4.362,-4.3642,-4.3656,-4.3658,-4.3657,-4.3655,-4.3686,-4.3676,-4.3661,-4.366,-4.3659,-4.3658,0,-4.283,-4.286,-4.2995,-4.3066,-4.3086,-4.3172,-4.3231,-4.3304,-4.3331,-4.3435,-4.346,-4.35,-4.3594,-4.3619,-4.3731,-4.3741,-4.388,-4.3872,-4.3858,-4.3857,-4.3938,-4.393,-4.42,-4.4235,-4.4013,-4.4015,-4.4017,0,-4.2945,-4.3029,-4.3109,-4.3164,-4.3205,-4.3293,-4.3349,-4.3367,-4.3426,-4.3509,-4.3572,-4.3665,-4.374,-4.389,-4.3929,-4.4014,-4.4008,-4.4096,-4.402,-4.4016,-4.4008,-4.4003,-4.4011,-4.411,-4.4113,-4.4115,-4.4116,0,-4.3147,-4.3157,-4.3239,-4.3327,-4.3395,-4.3464,-4.353,-4.3575,-4.3602,-4.3668,-4.3765,-4.3823,-4.3938,-4.403,-4.4116,-4.4153,-4.4139,-4.414,-4.4164,-4.4163,-4.415,-4.4157,-4.3896,-4.4134,-4.4132,-4.4131,-4.413,-4.4129,-4.3288,-4.3361,-4.3429,-4.352,-4.3572,-4.3635,-4.3707,-4.3742,-4.3824,-4.392,-4.3925,-4.4029,-4.4093,-4.4208,-4.425,-4.4331,-4.4304,-4.4338,-4.4347,-4.4355,-4.4362,-4.4138,-4.4347,-4.4346,-4.4346,-4.4345,-4.4345,0,-4.3488,-4.3531,-4.3615,-4.3709,-4.378,-4.3763,-4.3835,-4.3896,-4.3988,-4.405,-4.4125,-4.4235,-4.4324,-4.437,-4.4458,-4.4514,-4.4509,-4.4536,-4.4532,-4.454,-4.4381,-4.4352,-4.4538,-4.4538,-4.4538,-4.4538,-4.4538,-4.4538,-4.3601,-4.3724,-4.3742,-4.389,-4.3932,-4.4035,-4.4078,-4.4135,-4.4184,-4.4309,-4.4383,-4.4413,-4.4468,-4.456,-4.464,-4.4651,-4.4683,-4.4713,-4.4721,-4.4571,-4.4552,-4.4533,-4.4505,-4.4721,-4.4721,-4.4873,-4.4875,-4.4876]}]]